Location: Nebel
(54.6502°N, 8.3475°E)
Time: 01:02:50
(UTC+01:00)

Envisat - Pass Details

Date: 08 December 2022
Orbit: 763 x 765 km, 98.2° (Epoch: 01 February)

Event Time Altitude Azimuth Distance (km) Brightness Sun altitude
Rises 03:51:21 0° 21° (NNE) 3,248 6.7 -39.4°
Reaches altitude 10° 03:53:59 10° 33° (NNE) 2,316 5.9 -39.0°
Enters shadow 03:56:02 20° 51° (NE) 1,709 5.3 -38.7°
